Cortland County-chase Field, NY

11:09 PM EDT on September 18, 2019 (GMT -0400)
Cortland County-chase Field

Weather History for KN03 - August, 2019

Change the Weather History Date:

Saturday, August 24, 2019

  Actual Average (KITH) Record (KITH)
Temperature  
Mean Temperature 54 °F -  
Max Temperature 64 °F 75 °F 90 °F (1932)
Min Temperature 44 °F 54 °F 36 °F (1971)
Degree Days  
Heating Degree Days 11    
Growing Degree Days 4 (Base 50)    
Moisture  
Dew Point 50 °F    
Average Humidity 82    
Maximum Humidity 100    
Minimum Humidity 52    
Precipitation  
Precipitation 0.00 in - - ()
Sea Level Pressure  
Sea Level Pressure 30.26 in    
Wind  
Wind Speed 1 mph (NNE)    
Max Wind Speed 9 mph    
Max Gust Speed 16 mph    
Visibility 9 miles    
Events Fog    
Averages and records for this station are not official NWS values.
T = Trace of Precipitation, MM = Missing Value Source: NWS Daily Summary

Daily Weather History Graph

Daily Weather History Graph

Search for Another Location

Airport or City:

Astronomy

Aug. 24, 2019 Rise Set
Actual Time 6:20 AM EDT 7:52 PM EDT
Civil Twilight 5:51 AM EDT 8:22 PM EDT
Nautical Twilight 5:15 AM EDT 8:57 PM EDT
Astronomical Twilight 4:37 AM EDT 9:35 PM EDT
Moon 12:10 AM EDT (8/24) 3:09 PM EDT (8/24)
Length of Visible Light 14h 30m
Length of Day
13h 31m
Last Quarter, 39% of the Moon is Illuminated
Aug 24
Last Quarter
Aug 30
New
Sep 5
First Quarter
Sep 14
Full
Sep 21
Last Quarter

Hourly Weather History & Observations

Time (EDT) Temp. Dew Point Humidity Pressure Visibility Wind Dir Wind Speed Gust Speed Precip Events Conditions
12:15 AM 50.0 °F 50.0 °F 100% 30.17 in 10.0 mi Calm Calm - N/A   Clear
12:35 AM 50.0 °F 50.0 °F 100% 30.18 in 10.0 mi Calm Calm - N/A   Mostly Cloudy
1:15 AM 50.0 °F 50.0 °F 100% 30.19 in 10.0 mi Calm Calm - N/A   Overcast
1:35 AM 50.0 °F 50.0 °F 100% 30.19 in 10.0 mi Calm Calm - N/A   Overcast
1:55 AM 50.0 °F 50.0 °F 100% 30.19 in 10.0 mi Calm Calm - N/A   Overcast
2:15 AM 50.0 °F 50.0 °F 100% 30.19 in 10.0 mi Calm Calm - N/A   Overcast
2:35 AM 50.0 °F 50.0 °F 100% 30.20 in 10.0 mi Calm Calm - N/A   Overcast
2:55 AM 50.0 °F 50.0 °F 100% 30.19 in 10.0 mi Calm Calm - N/A   Mostly Cloudy
3:15 AM 50.0 °F 50.0 °F 100% 30.19 in 10.0 mi Calm Calm - N/A   Mostly Cloudy
3:35 AM 46.4 °F 46.4 °F 100% 30.19 in 7.0 mi Calm Calm - N/A   Scattered Clouds
3:55 AM 46.4 °F 46.4 °F 100% 30.20 in 10.0 mi Calm Calm - N/A   Clear
4:15 AM 46.4 °F 46.4 °F 100% 30.20 in 10.0 mi Calm Calm - N/A   Clear
4:35 AM 46.4 °F 46.4 °F 100% 30.20 in 10.0 mi Calm Calm - N/A   Clear
4:55 AM 44.6 °F 44.6 °F 100% 30.21 in 5.0 mi Calm Calm - N/A   Clear
5:15 AM 44.6 °F 44.6 °F 100% 30.21 in 10.0 mi Calm Calm - N/A   Scattered Clouds
5:35 AM 44.6 °F 44.6 °F 100% 30.21 in 7.0 mi Calm Calm - N/A   Clear
5:55 AM 44.6 °F 44.6 °F 100% 30.22 in 10.0 mi Calm Calm - N/A   Clear
6:15 AM 44.6 °F 44.6 °F 100% 30.23 in 10.0 mi Calm Calm - N/A   Clear
6:35 AM 44.6 °F 44.6 °F 100% 30.24 in 10.0 mi Calm Calm - N/A   Mostly Cloudy
6:55 AM 44.6 °F 44.6 °F 100% 30.24 in 1.2 mi Calm Calm - N/A   Overcast
7:15 AM 46.4 °F 46.4 °F 100% 30.26 in 0.5 mi Calm Calm - N/A Fog Fog
7:35 AM 46.4 °F 46.4 °F 100% 30.26 in 0.2 mi Calm Calm - N/A Fog Fog
7:55 AM 46.4 °F 46.4 °F 100% 30.27 in 0.2 mi Calm Calm - N/A Fog Fog
8:15 AM 48.2 °F 48.2 °F 100% 30.27 in 0.2 mi Calm Calm - N/A Fog Fog
8:35 AM 50.0 °F 50.0 °F 100% 30.27 in 10.0 mi Calm Calm - N/A   Scattered Clouds
8:55 AM 51.8 °F 51.8 °F 100% 30.27 in 10.0 mi Calm Calm - N/A   Clear
9:15 AM 53.6 °F 53.6 °F 100% 30.28 in 10.0 mi Calm Calm - N/A   Clear
9:35 AM 57.2 °F 51.8 °F 82% 30.27 in 10.0 mi Calm Calm - N/A   Clear
9:55 AM 60.8 °F 51.8 °F 72% 30.28 in 10.0 mi East 3.5 mph - N/A   Mostly Cloudy
10:15 AM 60.8 °F 50.0 °F 68% 30.27 in 10.0 mi NE 4.6 mph - N/A   Mostly Cloudy
10:35 AM 60.8 °F 50.0 °F 68% 30.27 in 10.0 mi North 5.8 mph - N/A   Mostly Cloudy
10:55 AM 60.8 °F 48.2 °F 63% 30.27 in 10.0 mi NNE 6.9 mph - N/A   Mostly Cloudy
11:15 AM 62.6 °F 48.2 °F 59% 30.28 in 10.0 mi NE 9.2 mph - N/A   Mostly Cloudy
11:35 AM 62.6 °F 48.2 °F 59% 30.28 in 10.0 mi NNE 8.1 mph - N/A   Mostly Cloudy
11:55 AM 62.6 °F 48.2 °F 59% 30.27 in 10.0 mi NE 9.2 mph 16.1 mph N/A   Overcast
12:15 PM 62.6 °F 48.2 °F 59% 30.28 in 10.0 mi NE 8.1 mph - N/A   Overcast
12:35 PM 62.6 °F 48.2 °F 59% 30.28 in 10.0 mi North 6.9 mph - N/A   Overcast
12:55 PM 62.6 °F 48.2 °F 59% 30.27 in 10.0 mi North 9.2 mph - N/A   Overcast
1:15 PM 62.6 °F 48.2 °F 59% 30.27 in 10.0 mi NE 5.8 mph - N/A   Overcast
1:35 PM 64.4 °F 46.4 °F 52% 30.26 in 10.0 mi NE 5.8 mph - N/A   Overcast
1:55 PM 64.4 °F 48.2 °F 56% 30.26 in 10.0 mi North 6.9 mph - N/A   Overcast
2:15 PM 62.6 °F 50.0 °F 63% 30.26 in 10.0 mi North 4.6 mph - N/A   Overcast
2:35 PM 62.6 °F 50.0 °F 63% 30.26 in 10.0 mi North 4.6 mph - N/A   Overcast
2:55 PM 62.6 °F 50.0 °F 63% 30.26 in 10.0 mi NNE 5.8 mph - N/A   Overcast
3:15 PM 64.4 °F 50.0 °F 59% 30.26 in 10.0 mi North 5.8 mph - N/A   Overcast
3:35 PM 62.6 °F 50.0 °F 63% 30.25 in 10.0 mi NW 5.8 mph - N/A   Overcast
3:55 PM 64.4 °F 51.8 °F 64% 30.26 in 10.0 mi NNE 4.6 mph - N/A   Overcast
4:15 PM 62.6 °F 51.8 °F 68% 30.25 in 10.0 mi NE 4.6 mph - N/A   Overcast
4:35 PM 62.6 °F 50.0 °F 63% 30.25 in 10.0 mi NNE 3.5 mph - N/A   Overcast
4:55 PM 62.6 °F 51.8 °F 68% 30.25 in 10.0 mi NNE 4.6 mph - N/A   Overcast
5:15 PM 62.6 °F 51.8 °F 68% 30.26 in 10.0 mi North 4.6 mph - N/A   Overcast
5:35 PM 62.6 °F 50.0 °F 63% 30.26 in 10.0 mi NNE 4.6 mph - N/A   Overcast
5:55 PM 62.6 °F 51.8 °F 68% 30.26 in 10.0 mi NNE 4.6 mph - N/A   Overcast
6:15 PM 62.6 °F 51.8 °F 68% 30.26 in 10.0 mi North 4.6 mph - N/A   Overcast
6:35 PM 62.6 °F 51.8 °F 68% 30.26 in 10.0 mi Calm Calm - N/A   Overcast
6:55 PM 60.8 °F 51.8 °F 72% 30.26 in 10.0 mi Calm Calm - N/A   Overcast
7:15 PM 60.8 °F 51.8 °F 72% 30.28 in 10.0 mi North 3.5 mph - N/A   Overcast
7:35 PM 60.8 °F 51.8 °F 72% 30.28 in 10.0 mi Calm Calm - N/A   Overcast
7:55 PM 60.8 °F 51.8 °F 72% 30.28 in 10.0 mi Calm Calm - N/A   Overcast
8:15 PM 59.0 °F 51.8 °F 77% 30.29 in 10.0 mi Calm Calm - N/A   Overcast
8:35 PM 59.0 °F 51.8 °F 77% 30.29 in 10.0 mi Calm Calm - N/A   Overcast
8:55 PM 59.0 °F 53.6 °F 82% 30.30 in 10.0 mi Calm Calm - N/A   Overcast
9:15 PM 59.0 °F 51.8 °F 77% 30.31 in 10.0 mi Calm Calm - N/A   Overcast
9:35 PM 59.0 °F 51.8 °F 77% 30.31 in 10.0 mi Calm Calm - N/A   Overcast
9:55 PM 57.2 °F 53.6 °F 88% 30.31 in 10.0 mi Calm Calm - N/A   Overcast
10:15 PM 57.2 °F 53.6 °F 88% 30.32 in 10.0 mi Calm Calm - N/A   Overcast
10:35 PM 57.2 °F 53.6 °F 88% 30.32 in 10.0 mi Calm Calm - N/A   Overcast
10:55 PM 55.4 °F 53.6 °F 94% 30.32 in 10.0 mi Calm Calm - N/A   Mostly Cloudy
11:15 PM 55.4 °F 53.6 °F 94% 30.32 in 10.0 mi Calm Calm - N/A   Clear
11:35 PM 53.6 °F 51.8 °F 94% 30.32 in 10.0 mi Calm Calm - N/A   Clear
11:55 PM 51.8 °F 51.8 °F 100% 30.31 in 10.0 mi Calm Calm - N/A   Clear